Houghton, MI

3:29 AM EST on November 25, 2017 (GMT -0500)
Houghton County Memorial

Weather History for KCMX - January, 2014

Change the Weather History Date:

Tuesday, January 7, 2014

  Actual Average Record
Temperature  
Mean Temperature 0 °F -  
Max Temperature 6 °F 18 °F 41 °F (2003)
Min Temperature -7 °F 7 °F -17 °F (1988)
Degree Days  
Heating Degree Days 66    
Moisture  
Dew Point -5 °F    
Average Humidity 76    
Maximum Humidity 85    
Minimum Humidity 71    
Precipitation  
Precipitation 0.00 in - - ()
Sea Level Pressure  
Sea Level Pressure 29.87 in    
Wind  
Wind Speed 19 mph (WNW)    
Max Wind Speed 31 mph    
Max Gust Speed 40 mph    
Averages and records for this station are not official NWS values.
T = Trace of Precipitation, MM = Missing Value Source: NWS Daily Summary

Daily Weather History Graph

Daily Weather History Graph

Search for Another Location

Airport or City:

Trip Planner

Search our weather history database for the weather conditions in past years. The results will help you decide how hot, cold, wet, or windy it might be!

Date:

Astronomy

Jan. 07, 2014 Rise Set
Actual Time 8:39 AM EST 5:21 PM EST
Civil Twilight 8:04 AM EST 5:56 PM EST
Nautical Twilight 7:26 AM EST 6:34 PM EST
Astronomical Twilight 6:49 AM EST 7:11 PM EST
Moon 11:58 AM EST (1/7) 12:21 AM EST (1/7)
Length of Visible Light 9h 51m
Length of Day
8h 41m
Waxing Crescent, 45% of the Moon is Illuminated
Jan 7
Waxing Crescent
Jan 7
First Quarter
Jan 15
Full
Jan 24
Last Quarter
Jan 30
New

Hourly Weather History & Observations

Time (EST) Temp. Windchill Dew Point Humidity Pressure Visibility Wind Dir Wind Speed Gust Speed Precip Events Conditions
12:01 AM -2.2 °F -24.7 °F -7.6 °F 78% 29.75 in 0.2 mi WNW 19.6 mph 26.5 mph 0.00 in Snow Heavy Snow
12:44 AM -2.2 °F -25.7 °F -9.4 °F 71% 29.75 in 0.2 mi NW 21.9 mph - 0.00 in Snow Heavy Snow
12:53 AM -2.0 °F -23.9 °F -8.0 °F 76% 29.84 in 0.2 mi WNW 18.4 mph - 0.00 in Snow Heavy Snow
1:18 AM -2.2 °F -24.7 °F -7.6 °F 78% 29.74 in 0.5 mi WNW 19.6 mph 27.6 mph 0.00 in Snow Snow
1:28 AM -2.2 °F -25.2 °F -9.4 °F 71% 29.73 in 0.2 mi NW 20.7 mph - 0.00 in Snow Heavy Snow
1:53 AM -2.9 °F -25.0 °F -9.0 °F 75% 29.83 in 0.2 mi WNW 18.4 mph 31.1 mph 0.00 in Snow Heavy Snow
2:40 AM -0.4 °F -22.8 °F -7.6 °F 72% 29.73 in 0.5 mi WNW 20.7 mph - 0.00 in Snow Snow
2:51 AM -0.4 °F -23.8 °F -5.8 °F 78% 29.73 in 0.2 mi WNW 23.0 mph 29.9 mph 0.00 in Snow Heavy Snow
2:52 AM -0.0 °F -22.9 °F -6.0 °F 76% 29.83 in 0.2 mi WNW 21.9 mph 29.9 mph 0.00 in Snow Heavy Snow
3:49 AM 1.4 °F -19.4 °F -5.8 °F 72% 29.73 in 0.2 mi WNW 18.4 mph 28.8 mph 0.00 in Snow Heavy Snow
3:53 AM 1.0 °F -21.9 °F -4.0 °F 79% 29.82 in 0.2 mi WNW 23.0 mph 31.1 mph 0.00 in Snow Heavy Snow
4:53 AM 3.0 °F -19.3 °F -2.9 °F 76% 29.81 in 0.2 mi WNW 23.0 mph 31.1 mph 0.00 in Snow Heavy Snow
5:00 AM 3.2 °F -18.1 °F -2.2 °F 78% 29.72 in 0.2 mi WNW 20.7 mph 29.9 mph 0.00 in Snow Heavy Snow
5:13 AM 3.2 °F -20.7 °F -2.2 °F 78% 29.72 in 0.2 mi WNW 27.6 mph 34.5 mph 0.00 in Snow Heavy Snow
5:53 AM 1.0 °F -20.4 °F -2.9 °F 83% 29.81 in 0.2 mi West 19.6 mph 32.2 mph 0.00 in Fog , Snow Snow
6:10 AM -4.0 °F -26.4 °F -9.4 °F 78% 29.72 in 0.5 mi West 18.4 mph - 0.00 in Snow Snow
6:18 AM -5.8 °F -26.8 °F -11.2 °F 77% 29.72 in 0.2 mi WSW 15.0 mph - 0.00 in Snow Heavy Snow
6:30 AM -5.8 °F -27.5 °F -11.2 °F 77% 29.72 in 0.5 mi WSW 16.1 mph - 0.00 in Snow Snow
6:53 AM -6.0 °F -28.4 °F -11.9 °F 75% 29.83 in 0.5 mi West 17.3 mph 24.2 mph 0.00 in Snow Snow
7:05 AM -7.6 °F -32.3 °F -13.0 °F 77% 29.74 in 0.2 mi West 20.7 mph - 0.00 in Snow Heavy Snow
7:26 AM -7.6 °F -31.1 °F -14.8 °F 71% 29.73 in 0.5 mi West 18.4 mph - 0.00 in Snow Snow
7:53 AM -5.1 °F -25.1 °F -11.0 °F 76% 29.83 in 0.8 mi West 13.8 mph - 0.00 in Snow Light Snow
8:05 AM 1.4 °F -23.5 °F -2.2 °F 85% 29.73 in 0.2 mi WNW 28.8 mph 34.5 mph 0.00 in Snow Heavy Snow
8:53 AM 1.9 °F -23.6 °F -2.9 °F 80% 29.84 in 0.2 mi WNW 31.1 mph 39.1 mph 0.00 in Snow Heavy Snow
9:05 AM 1.4 °F -23.5 °F -4.0 °F 78% 29.76 in 0.2 mi NW 28.8 mph 39.1 mph 0.00 in Snow Heavy Snow
9:27 AM 1.4 °F -23.2 °F -4.0 °F 78% 29.77 in 0.2 mi WNW 27.6 mph 38.0 mph 0.00 in Snow Heavy Snow
9:53 AM 1.0 °F -24.8 °F -4.0 °F 79% 29.87 in 0.2 mi WNW 31.1 mph 40.3 mph 0.00 in Snow Heavy Snow
10:53 AM 1.0 °F -23.2 °F -5.1 °F 75% 29.90 in 0.2 mi WNW 26.5 mph 38.0 mph 0.00 in Snow Heavy Snow
11:53 AM 1.0 °F -21.4 °F -5.1 °F 75% 29.92 in 0.2 mi WNW 21.9 mph 33.4 mph 0.00 in Snow Heavy Snow
12:37 PM 1.4 °F -21.9 °F -5.8 °F 72% 29.82 in 0.2 mi WNW 24.2 mph 27.6 mph 0.00 in Snow Heavy Snow
12:53 PM 1.9 °F -18.7 °F -5.1 °F 72% 29.92 in 0.2 mi WNW 18.4 mph 27.6 mph 0.00 in Snow Heavy Snow
1:26 PM 1.4 °F -19.4 °F -4.0 °F 78% 29.83 in 0.2 mi WNW 18.4 mph 27.6 mph 0.00 in Snow Heavy Snow
1:41 PM 1.4 °F -19.9 °F -4.0 °F 78% 29.84 in 0.2 mi WNW 19.6 mph 29.9 mph 0.00 in Snow Heavy Snow
1:53 PM 1.9 °F -18.1 °F -4.0 °F 76% 29.94 in 0.2 mi WNW 17.3 mph 26.5 mph 0.00 in Snow Heavy Snow
2:07 PM 1.4 °F -18.8 °F -5.8 °F 72% 29.85 in 0.2 mi WNW 17.3 mph 27.6 mph 0.00 in Snow Heavy Snow
2:17 PM 1.4 °F -18.8 °F -4.0 °F 78% 29.85 in 0.2 mi WNW 17.3 mph 24.2 mph 0.00 in Snow Heavy Snow
2:33 PM 1.4 °F -19.4 °F -4.0 °F 78% 29.86 in 0.2 mi WNW 18.4 mph 25.3 mph 0.00 in Snow Heavy Snow
2:48 PM 1.4 °F -18.2 °F -4.0 °F 78% 29.86 in 0.5 mi WNW 16.1 mph 24.2 mph 0.00 in Snow Snow
2:53 PM 1.9 °F -17.5 °F -5.1 °F 72% 29.96 in 0.8 mi WNW 16.1 mph - 0.00 in Snow Light Snow
3:09 PM 1.4 °F -19.4 °F -5.8 °F 72% 29.87 in 0.2 mi WNW 18.4 mph 28.8 mph 0.00 in Snow Heavy Snow
3:53 PM 1.9 °F -17.5 °F -5.1 °F 72% 29.98 in 0.5 mi WNW 16.1 mph - 0.00 in Snow Snow
4:02 PM 1.4 °F -19.9 °F -5.8 °F 72% 29.89 in 0.8 mi WNW 19.6 mph - 0.00 in Snow Light Snow
4:26 PM 1.4 °F -19.9 °F -4.0 °F 78% 29.91 in 0.2 mi WNW 19.6 mph 24.2 mph 0.00 in Snow Heavy Snow
4:53 PM 1.9 °F -15.5 °F -2.9 °F 80% 30.00 in 0.2 mi WNW 12.7 mph 24.2 mph 0.00 in Snow Heavy Snow
5:01 PM 3.2 °F -15.9 °F -2.2 °F 78% 29.92 in 0.5 mi West 16.1 mph 23.0 mph 0.00 in Snow Snow
5:15 PM -0.4 °F -19.2 °F -7.6 °F 72% 29.92 in 0.2 mi WSW 13.8 mph - 0.00 in Snow Heavy Snow
5:27 PM -0.4 °F -17.6 °F -7.6 °F 72% 29.93 in 0.2 mi WSW 11.5 mph - 0.00 in Snow Heavy Snow
5:53 PM -0.9 °F -19.1 °F -7.1 °F 75% 30.02 in 1.0 mi WSW 12.7 mph - 0.00 in Snow Light Snow
6:01 PM -0.4 °F -19.2 °F -7.6 °F 72% 29.93 in 1.0 mi WSW 13.8 mph - 0.00 in Snow Light Snow
6:40 PM -0.4 °F -16.7 °F -7.6 °F 72% 29.95 in 3.0 mi WSW 10.4 mph - 0.00 in   Overcast
6:49 PM -0.4 °F -17.6 °F -7.6 °F 72% 29.95 in 1.8 mi WSW 11.5 mph - 0.00 in Snow Light Snow
6:53 PM -0.9 °F -18.3 °F -7.1 °F 75% 30.05 in 1.2 mi WSW 11.5 mph - 0.00 in Snow Light Snow
7:06 PM -0.4 °F -15.7 °F -7.6 °F 72% 29.95 in 2.0 mi West 9.2 mph - 0.00 in Snow Light Snow
7:23 PM -0.4 °F -16.7 °F -5.8 °F 78% 29.95 in 1.0 mi WSW 10.4 mph - 0.00 in Snow Light Snow
7:25 PM -0.4 °F -16.7 °F -5.8 °F 78% 29.95 in 0.8 mi West 10.4 mph - 0.00 in Snow Light Snow
7:37 PM 1.4 °F -13.5 °F -5.8 °F 72% 29.95 in 0.8 mi West 9.2 mph - 0.00 in Snow Light Snow
7:53 PM 3.9 °F -16.1 °F -2.0 °F 76% 30.05 in 0.5 mi West 18.4 mph 23.0 mph 0.00 in Snow Snow
8:53 PM 5.0 °F -14.7 °F -0.0 °F 80% 30.05 in 0.5 mi West 18.4 mph - 0.00 in Snow Snow
9:09 PM 5.0 °F -13.6 °F -0.4 °F 78% 29.97 in 0.5 mi WNW 16.1 mph 25.3 mph 0.00 in Snow Snow
9:41 PM 6.8 °F -13.4 °F -0.4 °F 72% 29.98 in 0.8 mi WNW 20.7 mph 27.6 mph 0.00 in Snow Light Snow
9:53 PM 6.1 °F -14.3 °F -0.0 °F 76% 30.07 in 0.5 mi WNW 20.7 mph - 0.00 in Snow Snow
10:26 PM 6.8 °F -12.9 °F -0.4 °F 72% 29.98 in 0.5 mi WNW 19.6 mph - 0.00 in Snow Snow
10:43 PM 6.8 °F -10.0 °F -0.4 °F 72% 29.99 in 1.2 mi WNW 13.8 mph - 0.00 in Snow Light Snow
10:50 PM 6.8 °F -12.9 °F -0.4 °F 72% 29.99 in 1.2 mi WNW 19.6 mph 23.0 mph 0.00 in Snow Light Snow
10:53 PM 6.1 °F -13.3 °F -0.0 °F 76% 30.08 in 1.2 mi WNW 18.4 mph 23.0 mph 0.00 in Snow Light Snow
11:53 PM 6.1 °F -8.7 °F 1.0 °F 80% 30.09 in 1.0 mi WNW 10.4 mph - 0.00 in Snow Light Snow